This is the latest recevied weather packets stored in our database for station/object N4QD-13. If no packets are shown the sender has not sent any weather packets the latest 10 day(s).
| Time | Temp. | Humidity | Pressure | Rain* | Wind** | Luminosity | Snow |
|---|---|---|---|---|---|---|---|
| 1777826847 | 13.33° C | 41% | 1018.4 hPa | 0 mm | - | 730 W/m² | - |
| 1777826545 | 13.33° C | 46% | 1018.4 hPa | 0 mm | - | 770 W/m² | - |
| 1777826241 | 13.33° C | 44% | 1018.8 hPa | 0 mm | - | 766 W/m² | - |
| 1777825939 | 13.89° C | 40% | 1018.6 hPa | 0 mm | - | 742 W/m² | - |
| 1777825636 | 13.89° C | 45% | 1018.6 hPa | 0 mm | - | 733 W/m² | - |
| 1777825334 | 13.89° C | 45% | 1018.8 hPa | 0 mm | - | 750 W/m² | - |
| 1777825030 | 12.78° C | 43% | 1018.9 hPa | 0 mm | - | 590 W/m² | - |
| 1777824726 | 12.78° C | 42% | 1018.9 hPa | 0 mm | - | 715 W/m² | - |
| 1777824424 | 12.78° C | 42% | 1019 hPa | 0 mm | - | 743 W/m² | - |
| 1777824119 | 12.78° C | 45% | 1018.8 hPa | 0 mm | - | 745 W/m² | - |
| 1777823816 | 12.22° C | 42% | 1019 hPa | 0 mm | - | 721 W/m² | - |
| 1777823513 | 11.67° C | 45% | 1019.2 hPa | 0 mm | - | 718 W/m² | - |
| 1777823210 | 12.22° C | 43% | 1019.5 hPa | 0 mm | - | 710 W/m² | - |
| 1777822908 | 11.11° C | 45% | 1019.5 hPa | 0 mm | - | 707 W/m² | - |
| 1777822606 | 12.22° C | 43% | 1019.2 hPa | 0 mm | - | 700 W/m² | - |
| 1777822303 | 11.67° C | 43% | 1019.5 hPa | 0 mm | - | 698 W/m² | - |
| 1777822001 | 11.67° C | 46% | 1019.2 hPa | 0 mm | - | 681 W/m² | - |
| 1777821698 | 11.11° C | 47% | 1019.3 hPa | 0 mm | - | 674 W/m² | - |
| 1777821396 | 11.67° C | 47% | 1019.3 hPa | 0 mm | - | 680 W/m² | - |
| 1777821092 | 11.11° C | 48% | 1019.5 hPa | 0 mm | - | 684 W/m² | - |
| 1777820789 | 11.67° C | 43% | 1019.5 hPa | 0 mm | - | 582 W/m² | - |
| 1777820485 | 11.67° C | 46% | 1019.6 hPa | 0 mm | - | 661 W/m² | - |
| 1777820182 | 11.11° C | 45% | 1019.7 hPa | 0 mm | - | 623 W/m² | - |
| 1777819880 | 11.11° C | 47% | 1019.6 hPa | 0 mm | - | 280 W/m² | - |
| 1777819577 | 10.56° C | 50% | 1019.5 hPa | 0 mm | - | 489 W/m² | - |
* Rain latest hour (hover to see other rain measurements)
** Current wind speed in m/s (hover to see current wind gust speed)